TimeCST,TemperatureF,Dew PointF,Humidity,Sea Level PressureIn,VisibilityMPH,Wind Direction,Wind SpeedMPH,Gust SpeedMPH,PrecipitationIn,Events,Conditions,WindDirDegrees,DateUTC
12:54 AM,12.0,3.9,70,30.31,10.0,NNE,21.9,27.6,N/A,,Overcast,30,2012-12-25 06:54:00
1:54 AM,10.9,3.9,73,30.33,10.0,NNE,20.7,-,N/A,,Overcast,30,2012-12-25 07:54:00
2:54 AM,9.0,1.9,73,30.36,10.0,North,13.8,-,N/A,,Mostly Cloudy,10,2012-12-25 08:54:00
3:54 AM,8.1,1.0,73,30.39,10.0,North,15.0,-,N/A,,Mostly Cloudy,10,2012-12-25 09:54:00
4:54 AM,7.0,-0.0,73,30.41,10.0,North,15.0,-,N/A,,Mostly Cloudy,10,2012-12-25 10:54:00
5:54 AM,5.0,-2.0,73,30.43,10.0,North,15.0,-,N/A,,Mostly Cloudy,360,2012-12-25 11:54:00
6:54 AM,3.9,-2.0,76,30.47,10.0,North,11.5,-,N/A,,Mostly Cloudy,10,2012-12-25 12:54:00
7:54 AM,3.9,-2.0,76,30.49,10.0,North,12.7,-,N/A,,Partly Cloudy,350,2012-12-25 13:54:00
8:54 AM,3.9,-2.0,76,30.51,10.0,North,13.8,-,N/A,,Scattered Clouds,350,2012-12-25 14:54:00
9:54 AM,5.0,-0.9,76,30.56,10.0,North,10.4,-,N/A,,Clear,360,2012-12-25 15:54:00
10:54 AM,7.0,-0.0,73,30.55,10.0,North,18.4,-,N/A,,Clear,10,2012-12-25 16:54:00
11:54 AM,8.1,1.0,73,30.49,10.0,North,19.6,-,N/A,,Mostly Cloudy,10,2012-12-25 17:54:00
12:54 PM,9.0,1.9,73,30.46,10.0,North,17.3,-,N/A,,Clear,10,2012-12-25 18:54:00
1:54 PM,10.0,3.0,73,30.47,10.0,North,15.0,-,N/A,,Clear,10,2012-12-25 19:54:00
2:54 PM,10.9,3.9,73,30.50,10.0,NNE,13.8,-,N/A,,Partly Cloudy,20,2012-12-25 20:54:00
3:54 PM,12.0,3.9,70,30.51,10.0,North,11.5,-,N/A,,Mostly Cloudy,360,2012-12-25 21:54:00
4:54 PM,10.9,5.0,77,30.50,10.0,North,13.8,-,N/A,,Scattered Clouds,360,2012-12-25 22:54:00
5:54 PM,12.0,5.0,73,30.49,10.0,North,12.7,-,N/A,,Clear,360,2012-12-25 23:54:00
6:54 PM,10.9,5.0,77,30.48,10.0,North,12.7,-,N/A,,Clear,10,2012-12-26 00:54:00
7:54 PM,10.0,3.9,76,30.47,10.0,North,10.4,-,N/A,,Clear,10,2012-12-26 01:54:00
8:54 PM,7.0,1.9,80,30.47,10.0,North,8.1,-,N/A,,Clear,360,2012-12-26 02:54:00
9:54 PM,6.1,1.0,80,30.45,10.0,North,6.9,-,N/A,,Clear,360,2012-12-26 03:54:00
10:54 PM,5.0,1.0,84,30.45,10.0,North,9.2,-,N/A,,Clear,350,2012-12-26 04:54:00
11:54 PM,3.9,-0.0,84,30.45,10.0,North,5.8,-,N/A,,Clear,350,2012-12-26 05:54:00